Weather History for KAUM - December, 2013

Change the Weather History Date:

Saturday, December 14, 2013

  Actual Average Record
Temperature  
Mean Temperature 8 °F -  
Max Temperature 15 °F 28 °F 53 °F (1998)
Min Temperature 1 °F 15 °F -13 °F (2010)
Degree Days  
Heating Degree Days 57    
Moisture  
Dew Point 8 °F    
Average Humidity 86    
Maximum Humidity 100    
Minimum Humidity 78    
Precipitation  
Precipitation 0.00 in - - ()
Sea Level Pressure  
Sea Level Pressure 30.10 in    
Wind  
Wind Speed 10 mph (NNW)    
Max Wind Speed 20 mph    
Max Gust Speed 26 mph    
Visibility 8 miles    
Events Snow    
Averages and records for this station are not official NWS values.
T = Trace of Precipitation, MM = Missing Value Source: NWS Daily Summary

Daily Weather History Graph

Daily Weather History Graph

Search for Another Location

Airport or City:

Trip Planner

Search our weather history database for the weather conditions in past years. The results will help you decide how hot, cold, wet, or windy it might be!

Date:

Astronomy

Dec. 14, 2013 Rise Set
Actual Time 7:37 AM CST 4:35 PM CST
Civil Twilight 7:05 AM CST 5:08 PM CST
Nautical Twilight 6:28 AM CST 5:44 PM CST
Astronomical Twilight 5:53 AM CST 6:19 PM CST
Moon 3:00 PM CST (12/14) 4:55 AM CST (12/14)
Length of Visible Light 10h 03m
Length of Day
8h 57m
Waxing Gibbous, 94% of the Moon is Illuminated
Dec 14
Waxing Gibbous
Dec 17
Full
Dec 25
Last Quarter
Jan 1
New
Jan 7
First Quarter

Hourly Weather History & Observations

Time (CST) Temp. Windchill Dew Point Humidity Pressure Visibility Wind Dir Wind Speed Gust Speed Precip Events Conditions
12:14 AM 15.8 °F 2.7 °F 10.4 °F 79% 30.15 in 10.0 mi ENE 11.5 mph - N/A   Overcast
12:34 AM 15.8 °F 2.1 °F 10.4 °F 79% 30.15 in 10.0 mi ENE 12.7 mph 18.4 mph N/A   Overcast
12:54 AM 15.8 °F 4.2 °F 12.2 °F 86% 30.15 in 10.0 mi ENE 9.2 mph 17.3 mph N/A   Overcast
1:14 AM 14.0 °F -0.2 °F 12.2 °F 93% 30.14 in 10.0 mi ENE 12.7 mph 18.4 mph N/A   Overcast
1:35 AM 14.0 °F 2.0 °F 12.2 °F 93% 30.14 in 7.0 mi ENE 9.2 mph - N/A   Overcast
1:54 AM 14.0 °F -0.2 °F 12.2 °F 93% 30.14 in 7.0 mi ENE 12.7 mph - N/A   Overcast
2:14 AM 14.0 °F 0.5 °F 10.4 °F 86% 30.14 in 10.0 mi ENE 11.5 mph - N/A   Overcast
2:35 AM 12.2 °F 0.7 °F 12.2 °F 100% 30.14 in 7.0 mi ENE 8.1 mph 16.1 mph N/A   Overcast
2:54 AM 12.2 °F -3.1 °F 12.2 °F 100% 30.14 in 7.0 mi ENE 13.8 mph - N/A   Overcast
3:14 AM 12.2 °F -1.0 °F 12.2 °F 100% 30.13 in 10.0 mi ENE 10.4 mph - N/A   Overcast
3:35 AM 12.2 °F -0.2 °F 12.2 °F 100% 30.13 in 7.0 mi ENE 9.2 mph - N/A   Overcast
3:54 AM 12.2 °F 1.7 °F 12.2 °F 100% 30.13 in 5.0 mi NE 6.9 mph - N/A   Overcast
4:14 AM 12.2 °F -0.2 °F 10.4 °F 92% 30.12 in 7.0 mi ENE 9.2 mph - N/A   Overcast
4:35 AM 12.2 °F 4.3 °F 10.4 °F 92% 30.13 in 5.0 mi NE 4.6 mph - N/A Snow Light Snow
4:54 AM 12.2 °F 2.9 °F 10.4 °F 92% 30.13 in 4.0 mi NNE 5.8 mph - N/A Snow Light Snow
5:14 AM 12.2 °F 2.9 °F 10.4 °F 92% 30.13 in 5.0 mi NNE 5.8 mph - N/A Snow Light Snow
5:35 AM 12.2 °F 2.9 °F 10.4 °F 92% 30.12 in 7.0 mi NE 5.8 mph - N/A Snow Light Snow
5:54 AM 12.2 °F 1.7 °F 10.4 °F 92% 30.13 in 7.0 mi NNE 6.9 mph - N/A   Overcast
6:14 AM 12.2 °F 4.3 °F 10.4 °F 92% 30.13 in 5.0 mi NNE 4.6 mph - N/A Snow Light Snow
6:34 AM 12.2 °F 1.7 °F 10.4 °F 92% 30.13 in 3.0 mi NNE 6.9 mph - N/A Snow Light Snow
6:54 AM 12.2 °F 6.1 °F 10.4 °F 92% 30.12 in 2.5 mi NE 3.5 mph - N/A Snow Light Snow
7:14 AM 12.2 °F 4.3 °F 10.4 °F 92% 30.13 in 5.0 mi North 4.6 mph - N/A Snow Light Snow
7:34 AM 12.2 °F 4.3 °F 10.4 °F 92% 30.13 in 3.0 mi North 4.6 mph - N/A Snow Light Snow
7:54 AM 12.2 °F 2.9 °F 10.4 °F 92% 30.15 in 3.0 mi North 5.8 mph - N/A Snow Light Snow
8:14 AM 12.2 °F 1.7 °F 8.6 °F 85% 30.15 in 4.0 mi North 6.9 mph - N/A Snow Light Snow
8:34 AM 12.2 °F 4.3 °F 8.6 °F 85% 30.15 in 7.0 mi North 4.6 mph - N/A Snow Light Snow
8:54 AM 12.2 °F 1.7 °F 8.6 °F 85% 30.15 in 10.0 mi North 6.9 mph - N/A Snow Light Snow
9:14 AM 12.2 °F 0.7 °F 8.6 °F 85% 30.15 in 2.0 mi North 8.1 mph - N/A Snow Light Snow
9:34 AM 12.2 °F 1.7 °F 8.6 °F 85% 30.15 in 2.5 mi North 6.9 mph - N/A Snow Light Snow
9:54 AM 12.2 °F 6.1 °F 8.6 °F 85% 30.15 in 3.0 mi North 3.5 mph - N/A Snow Light Snow
10:14 AM 12.2 °F 1.7 °F 8.6 °F 85% 30.14 in 3.0 mi North 6.9 mph - N/A Snow Light Snow
10:34 AM 12.2 °F 4.3 °F 8.6 °F 85% 30.14 in 3.0 mi North 4.6 mph - N/A Snow Light Snow
10:54 AM 12.2 °F -0.2 °F 8.6 °F 85% 30.13 in 7.0 mi NNW 9.2 mph - N/A Snow Light Snow
11:14 AM 12.2 °F 2.9 °F 8.6 °F 85% 30.12 in 10.0 mi North 5.8 mph - N/A Snow Light Snow
11:34 AM 14.0 °F 6.5 °F 8.6 °F 79% 30.11 in 10.0 mi North 4.6 mph - N/A Snow Light Snow
11:54 AM 14.0 °F 5.1 °F 8.6 °F 79% 30.10 in 10.0 mi North 5.8 mph - N/A Snow Light Snow
12:14 PM 14.0 °F 2.9 °F 8.6 °F 79% 30.10 in 10.0 mi WNW 8.1 mph - N/A   Overcast
12:34 PM 14.0 °F 2.9 °F 8.6 °F 79% 30.09 in 10.0 mi NW 8.1 mph - N/A   Overcast
12:54 PM 14.0 °F 3.9 °F 8.6 °F 79% 30.08 in 10.0 mi NW 6.9 mph - N/A   Overcast
1:14 PM 14.0 °F 1.2 °F 10.4 °F 86% 30.07 in 10.0 mi NNW 10.4 mph - N/A Snow Light Snow
1:34 PM 14.0 °F -0.2 °F 10.4 °F 86% 30.07 in 10.0 mi NW 12.7 mph - N/A   Overcast
1:54 PM 14.0 °F 0.5 °F 10.4 °F 86% 30.06 in 10.0 mi NW 11.5 mph - N/A   Overcast
2:14 PM 14.0 °F 2.9 °F 8.6 °F 79% 30.06 in 10.0 mi WNW 8.1 mph - N/A Snow Light Snow
2:34 PM 14.0 °F 2.0 °F 8.6 °F 79% 30.06 in 10.0 mi WNW 9.2 mph - N/A Snow Light Snow
2:54 PM 14.0 °F 0.5 °F 8.6 °F 79% 30.06 in 10.0 mi WNW 11.5 mph - N/A   Overcast
3:14 PM 12.2 °F -2.5 °F 8.6 °F 85% 30.06 in 10.0 mi WNW 12.7 mph 16.1 mph N/A Snow Light Snow
3:34 PM 12.2 °F -0.2 °F 8.6 °F 85% 30.07 in 10.0 mi WNW 9.2 mph - N/A   Overcast
3:54 PM 12.2 °F 1.7 °F 8.6 °F 85% 30.07 in 7.0 mi WNW 6.9 mph - N/A Snow Light Snow
4:14 PM 12.2 °F 0.7 °F 8.6 °F 85% 30.06 in 10.0 mi WNW 8.1 mph - N/A   Overcast
4:35 PM 12.2 °F 0.7 °F 8.6 °F 85% 30.06 in 10.0 mi West 8.1 mph - N/A Snow Light Snow
4:54 PM 12.2 °F -1.0 °F 8.6 °F 85% 30.06 in 10.0 mi WNW 10.4 mph - N/A   Overcast
5:14 PM 12.2 °F -1.0 °F 8.6 °F 85% 30.05 in 10.0 mi West 10.4 mph 17.3 mph N/A   Overcast
5:34 PM 12.2 °F -3.1 °F 8.6 °F 85% 30.06 in 10.0 mi WNW 13.8 mph - N/A   Overcast
5:54 PM 10.4 °F -5.4 °F 8.6 °F 92% 30.06 in 10.0 mi West 13.8 mph 18.4 mph N/A Snow Light Snow
6:14 PM 10.4 °F -5.4 °F 6.8 °F 85% 30.06 in 10.0 mi WNW 13.8 mph 24.2 mph N/A   Overcast
6:34 PM 10.4 °F -4.1 °F 6.8 °F 85% 30.06 in 10.0 mi WNW 11.5 mph 20.7 mph N/A Snow Light Snow
6:54 PM 10.4 °F -6.6 °F 6.8 °F 85% 30.06 in 10.0 mi WNW 16.1 mph 26.5 mph N/A Snow Light Snow
7:14 PM 10.4 °F -7.2 °F 5.0 °F 79% 30.05 in 10.0 mi NW 17.3 mph 23.0 mph N/A Snow Light Snow
7:34 PM 10.4 °F -6.6 °F 5.0 °F 79% 30.05 in 10.0 mi WNW 16.1 mph 20.7 mph N/A   Overcast
7:54 PM 10.4 °F -5.4 °F 5.0 °F 79% 30.05 in 10.0 mi WNW 13.8 mph 19.6 mph N/A   Overcast
8:14 PM 10.4 °F -5.4 °F 6.8 °F 85% 30.05 in 3.0 mi WNW 13.8 mph 20.7 mph N/A Snow Light Snow
8:34 PM 8.6 °F -10.0 °F 5.0 °F 85% 30.04 in 4.0 mi WNW 18.4 mph 24.2 mph N/A Snow Light Snow
8:54 PM 8.6 °F -7.7 °F 5.0 °F 85% 30.04 in 4.0 mi WNW 13.8 mph 19.6 mph N/A Snow Light Snow
9:14 PM 8.6 °F -8.3 °F 3.2 °F 79% 30.04 in 3.0 mi WNW 15.0 mph 21.9 mph N/A Snow Light Snow
9:34 PM 6.8 °F -12.9 °F 1.4 °F 79% 30.04 in 10.0 mi WNW 19.6 mph 23.0 mph N/A   Mostly Cloudy
9:54 PM 3.2 °F -16.5 °F -2.2 °F 78% 30.05 in 10.0 mi WNW 17.3 mph 23.0 mph N/A   Scattered Clouds
10:15 PM 3.2 °F -11.3 °F -2.2 °F 78% 30.05 in 10.0 mi WNW 9.2 mph - N/A   Scattered Clouds
10:34 PM 3.2 °F -14.6 °F -2.2 °F 78% 30.05 in 10.0 mi WNW 13.8 mph - N/A   Mostly Cloudy
10:54 PM 1.4 °F -17.6 °F -2.2 °F 85% 30.05 in 10.0 mi WNW 15.0 mph 23.0 mph N/A   Mostly Cloudy
11:14 PM 1.4 °F -18.2 °F -2.2 °F 85% 30.05 in 10.0 mi NW 16.1 mph 19.6 mph N/A   Mostly Cloudy
11:34 PM 1.4 °F -18.2 °F -2.2 °F 85% 30.05 in 10.0 mi NW 16.1 mph 23.0 mph N/A   Mostly Cloudy
11:54 PM 1.4 °F -17.6 °F -4.0 °F 78% 30.05 in 10.0 mi NW 15.0 mph 23.0 mph N/A   Mostly Cloudy